Location: *
(39.6167°S, 171.5333°W)
Time: 05:29:32
(UTC+00:00)

ASTEX 1 - Pass Details

Date: 13 May 2021
Orbit: 719 x 744 km, 92.7° (Epoch: 16 June)

Event Time Altitude Azimuth Distance (km) Brightness Sun altitude
Rises 16:02:55 0° 172° (S) 3,175 6.8 -26.8°
Reaches altitude 10° 16:05:14 10° 169° (S) 2,249 6.0 -26.4°
Maximum altitude 16:10:12 70° 85° (E) 786 3.6 -25.4°
Drops below altitude 10° 16:15:08 10° 1° (N) 2,233 6.0 -24.5°
Sets 16:17:25 0° 359° (N) 3,151 6.7 -24.0°
